[[{"header":{"parameterUnit":"m.s-1","parameterCategory":1,"la1":30.2991,"la2":30.254,"lo1":-89.0895,"lo2":-89.0444,"dy":0.0017,"dx":0.0017,"nx":28,"ny":28,"refTime":"2024-03-08T03:00:00:Z","depth":0,"parameterNumber":2,"parameterNumberName":"U-component_of_WINDS"},"data":[0,0,0,0,0,0,0,0,0,0,0,0,0,0,0,0,0,0,0,0,0,0,0,0,0,0,0,0,0,0,0,0,0,0,0,0,0,0,0,0,0,0,0,0,0,0,0,0,0,0,0,0,0,0,0,0,0,0,1.5929,1.5929,0,1.5916,1.5916,1.5915,1.5871,1.587,1.5869,1.5868,1.5855,1.5856,1.5856,0,0,0,0,0,0,0,0,0,0,0,0,0,1.5918,1.5918,1.5929,1.5929,1.5929,1.5916,1.5916,1.5915,1.5871,1.587,1.5869,1.5868,1.5855,1.5856,1.5856,0,0,0,0,0,0,0,0,0,0,0,0,0,1.5916,1.5919,1.5929,1.5905,1.5903,1.5916,1.5916,1.5915,1.5872,1.587,1.5869,1.5867,1.5855,1.5855,1.5856,1.5891,0,0,1.5859,1.5859,0,0,0,0,0,0,0,0,1.5916,1.5916,1.5909,1.5907,1.5905,1.5894,1.5907,1.5907,1.5872,1.5884,1.5868,1.5867,1.5869,1.5869,1.5869,1.5891,1.589,1.5859,1.5859,1.586,1.586,0,0,0,0,0,0,0,1.5916,1.5916,1.5924,1.5909,1.5906,1.5896,1.5894,1.5907,1.5885,1.5882,1.5879,1.5878,1.5868,1.5869,1.5869,1.589,1.5859,1.586,1.586,1.5861,1.5939,1.5941,0,0,0,0,0,0,1.5919,1.5917,1.5924,1.5924,1.5907,1.5897,1.5895,1.5899,1.5885,1.5881,1.5879,1.5876,1.5868,1.5868,1.5868,1.5908,1.586,1.5861,1.5861,1.5938,1.5939,1.5941,0,0,0,0,0,0,1.5919,1.5921,1.5925,1.5919,1.5919,1.5899,1.5903,1.5899,1.59,1.5882,1.5878,1.5885,1.5867,1.5867,1.5886,1.5907,1.5861,1.5862,1.5936,1.5938,1.594,1.5989,0,0,0,0,0,0,1.5919,1.5921,1.5934,1.592,1.592,1.5943,1.5905,1.59,1.5902,1.5897,1.5886,1.5883,1.5866,1.5885,1.5887,1.5907,1.5862,1.5934,1.5937,1.594,1.5985,1.5992,1.5999,0,0,0,0,0,1.5919,1.5948,1.5935,1.5936,1.5935,1.5944,1.5944,1.5923,1.5904,1.5916,1.5905,1.5883,1.5904,1.5887,1.5889,1.591,1.5932,1.5936,1.5939,1.5982,1.5991,1.5998,0,0,0,0,0,0,1.5965,1.5946,1.5931,1.5956,1.5952,1.5937,1.5952,1.5933,1.5935,1.5931,1.5906,1.5904,1.5926,1.592,1.5901,1.5943,1.5915,1.5919,1.5947,1.5955,1.5962,1.5963,1.5863,0,0,0,0,0,1.5978,1.5987,1.5969,1.5994,1.5992,1.5973,1.5976,1.596,1.5955,1.5954,1.5943,1.594,1.5945,1.595,1.5954,1.5984,1.5981,1.5999,1.6006,1.6012,1.6016,1.6031,1.6039,1.5953,1.5953,1.5953,0,0,1.6005,1.5996,1.6003,1.6003,1.5998,1.6007,1.5972,1.5983,1.599,1.5955,1.5972,1.5965,1.5959,1.5984,1.5994,1.5979,1.6039,1.6016,1.6021,1.6022,1.6036,1.6044,1.6051,1.5955,1.5955,1.5954,0,0,1.606,1.6054,1.6073,1.6069,1.6062,1.6048,1.6053,1.6041,1.6034,1.6051,1.6025,1.6033,1.6043,1.604,1.604,1.6094,1.6074,1.6096,1.6131,1.6147,1.6154,1.616,1.6179,1.6186,1.61,1.61,1.61,0,1.6095,1.6108,1.6085,1.6099,1.61,1.6068,1.6088,1.6085,1.608,1.6081,1.6064,1.6077,1.6071,1.6094,1.6107,1.6108,1.6113,1.6097,1.6154,1.616,1.6165,1.6184,1.6191,1.6102,1.6102,1.6102,1.6102,0,1.6151,1.6161,1.6178,1.6173,1.6176,1.6192,1.6172,1.6178,1.6162,1.6151,1.6168,1.616,1.6162,1.6166,1.6151,1.6188,1.6179,1.6159,1.613,1.6177,1.6193,1.62,1.6106,1.6105,1.6105,1.6104,0,0,1.6234,1.6217,1.6224,1.6221,1.6211,1.6219,1.6234,1.6236,1.6241,1.6238,1.6251,1.626,1.6242,1.6242,1.6226,1.624,1.6283,1.6218,1.6217,1.623,1.6323,1.6338,1.6347,1.6269,1.6271,1.6272,1.6324,0,1.6286,1.6311,1.6291,1.632,1.6328,1.6299,1.6312,1.6307,1.6297,1.6304,1.6292,1.63,1.6274,1.6274,1.6286,1.6275,1.6301,1.6271,1.6281,1.6282,1.6284,1.6355,1.6372,1.6421,1.633,1.6331,1.6332,0,1.635,1.635,1.638,1.6368,1.6371,1.6383,1.6383,1.639,1.6384,1.6376,1.6376,1.6356,1.6371,1.6342,1.6362,1.6342,1.6344,1.634,1.6341,1.6341,1.631,1.6358,1.6436,1.6444,1.6342,1.6341,1.634,0,1.6408,1.6416,1.6434,1.6433,1.642,1.6429,1.6424,1.6417,1.6419,1.642,1.6421,1.6423,1.6425,1.6427,1.6409,1.6389,1.6431,1.64,1.6425,1.6425,1.6435,1.6434,1.6515,1.6437,1.6436,1.6436,1.6436,0,1.6468,1.6487,1.646,1.6472,1.6492,1.6469,1.6491,1.6483,1.6476,1.6486,1.646,1.647,1.6446,1.6453,1.6439,1.6457,1.6458,1.6452,1.6448,1.6454,1.6455,1.6456,1.6452,1.6438,1.6438,1.6437,1.6437,0,1.6536,1.6519,1.6537,1.6523,1.652,1.6536,1.6524,1.6534,1.6522,1.6535,1.6536,1.6518,1.6525,1.6507,1.6512,1.6502,1.6529,1.652,1.6531,1.6528,1.6554,1.6552,1.6637,1.6648,1.6563,1.6564,1.6564,0,1.6576,1.659,1.6577,1.6582,1.6578,1.6585,1.6588,1.6566,1.6569,1.6564,1.6575,1.658,1.6583,1.6596,1.6583,1.6586,1.6577,1.6607,1.6577,1.6583,1.6578,1.6577,1.6578,1.6613,1.6614,1.6615,1.6616,0,1.6648,1.6638,1.6643,1.6644,1.6648,1.6648,1.6646,1.6651,1.6628,1.6633,1.664,1.6642,1.6647,1.6652,1.6653,1.6648,1.6628,1.6625,1.6631,1.6637,1.6644,1.6641,1.6548,1.6623,1.6622,1.6622,1.6621,1.6621,1.6703,1.6714,1.6707,1.6712,1.6709,1.6708,1.6717,1.6706,1.6711,1.6713,1.67,1.671,1.6704,1.6703,1.67,1.6708,1.6694,1.6702,1.6705,1.6707,1.6711,1.6642,1.6708,1.6707,1.6707,1.6707,1.6707,0,1.6773,1.6767,1.6773,1.6771,1.6776,1.6756,1.6754,1.6759,1.6768,1.6764,1.6767,1.6775,1.6781,1.6769,1.6772,1.678,1.6771,1.6782,1.6781,1.678,1.6723,1.6718,1.6789,1.6789,1.6789,1.6789,1.6789,1.6789,1.681,1.6828,1.6818,1.6835,1.6828,1.6838,1.6838,1.6837,1.6834,1.6844,1.6848,1.684,1.6833,1.6836,1.684,1.6836,1.6839,1.6853,1.6846,1.6793,1.6784,1.6777,1.6772,1.6853,1.6853,1.6902,1.6903,1.6903]},{"header":{"parameterUnit":"m.s-1","parameterCategory":1,"la1":30.2991,"la2":30.254,"lo1":-89.0895,"lo2":-89.0444,"dy":0.0017,"dx":0.0017,"nx":28,"ny":28,"refTime":"2024-03-08T03:00:00:Z","depth":0,"parameterNumber":3,"parameterNumberName":"V-component_of_WINDS"},"data":[0,0,0,0,0,0,0,0,0,0,0,0,0,0,0,0,0,0,0,0,0,0,0,0,0,0,0,0,0,0,0,0,0,0,0,0,0,0,0,0,0,0,0,0,0,0,0,0,0,0,0,0,0,0,0,0,0,0,5.4695,5.4696,0,5.4762,5.4763,5.4763,5.4751,5.475,5.4748,5.4747,5.4816,5.4819,5.4822,0,0,0,0,0,0,0,0,0,0,0,0,0,5.4558,5.4561,5.4695,5.4696,5.4697,5.4762,5.4763,5.4764,5.4751,5.475,5.4748,5.4747,5.4815,5.4818,5.4822,0,0,0,0,0,0,0,0,0,0,0,0,0,5.4621,5.4562,5.4695,5.4698,5.4699,5.4762,5.4763,5.4764,5.4751,5.475,5.4748,5.4746,5.4814,5.4818,5.4822,5.4885,0,0,5.4836,5.4838,0,0,0,0,0,0,0,0,5.4617,5.4626,5.4697,5.4698,5.47,5.4746,5.474,5.4805,5.4752,5.4732,5.4747,5.4745,5.4794,5.48,5.4816,5.4889,5.4891,5.4836,5.4839,5.4841,5.4842,0,0,0,0,0,0,0,5.4613,5.4623,5.4722,5.4698,5.47,5.4697,5.4704,5.4752,5.4772,5.4733,5.4732,5.4741,5.4794,5.4812,5.4818,5.4892,5.4836,5.484,5.4843,5.4844,5.5023,5.5025,0,0,0,0,0,0,5.4607,5.4619,5.4719,5.4724,5.4653,5.4701,5.4709,5.4733,5.4772,5.4776,5.4742,5.474,5.4806,5.4813,5.482,5.4899,5.4841,5.4845,5.4847,5.5021,5.5023,5.5025,0,0,0,0,0,0,5.4604,5.4616,5.4717,5.4671,5.4684,5.4705,5.4733,5.4735,5.4753,5.4778,5.4782,5.4756,5.4804,5.4814,5.487,5.4901,5.4847,5.4851,5.5018,5.5021,5.5024,5.5055,0,0,0,0,0,0,5.4601,5.4615,5.4639,5.4672,5.4686,5.4765,5.4735,5.4738,5.4761,5.4758,5.4793,5.4797,5.4804,5.4863,5.4874,5.4906,5.4854,5.5015,5.5019,5.5023,5.5051,5.5059,5.5065,0,0,0,0,0,5.4596,5.4645,5.464,5.4653,5.4716,5.4767,5.4775,5.4782,5.4763,5.4788,5.4804,5.4796,5.4895,5.4869,5.4881,5.4915,5.5013,5.5018,5.5023,5.5048,5.5057,5.5065,0,0,0,0,0,0,5.4614,5.4649,5.4645,5.4705,5.4733,5.4764,5.4795,5.4791,5.4825,5.4821,5.4829,5.4837,5.4894,5.491,5.488,5.4979,5.4952,5.4959,5.4967,5.4976,5.4983,5.4979,5.4858,0,0,0,0,0,5.4626,5.4663,5.4691,5.4742,5.4757,5.4774,5.4796,5.4799,5.4828,5.484,5.486,5.4889,5.4927,5.4952,5.4988,5.5053,5.5062,5.5083,5.5089,5.5095,5.5102,5.514,5.515,5.5041,5.5041,5.5041,0,0,5.4649,5.4673,5.4696,5.4747,5.4769,5.4809,5.4784,5.4826,5.4856,5.4846,5.4901,5.4917,5.495,5.5011,5.5039,5.5026,5.5134,5.5101,5.5105,5.5109,5.5146,5.5156,5.5165,5.5044,5.5043,5.5043,0,0,5.4713,5.4734,5.478,5.4803,5.4837,5.4848,5.4859,5.4891,5.4902,5.4957,5.4951,5.4987,5.5051,5.5076,5.5097,5.5172,5.5166,5.5183,5.522,5.5257,5.5266,5.5274,5.5303,5.5313,5.519,5.519,5.519,0,5.4738,5.4798,5.4804,5.4848,5.4871,5.4865,5.4912,5.4934,5.4978,5.4995,5.4979,5.5062,5.5084,5.5152,5.5171,5.5187,5.5201,5.518,5.5264,5.5272,5.5279,5.5307,5.5318,5.5192,5.5192,5.5191,5.5191,0,5.4828,5.4869,5.4902,5.4946,5.4973,5.5018,5.5033,5.5059,5.506,5.5074,5.5131,5.5157,5.5199,5.5215,5.5216,5.5284,5.5276,5.5262,5.5235,5.5292,5.5318,5.5329,5.5195,5.5194,5.5193,5.5193,0,0,5.4905,5.4953,5.4965,5.4986,5.5024,5.5056,5.5102,5.5144,5.5168,5.5198,5.5238,5.5294,5.5282,5.5306,5.531,5.5342,5.5403,5.5325,5.5326,5.5341,5.5483,5.5494,5.5506,5.5399,5.5401,5.5403,5.5481,0,5.4974,5.5055,5.5063,5.5136,5.5176,5.5171,5.5211,5.5239,5.5253,5.5289,5.5304,5.5345,5.5325,5.534,5.5371,5.5389,5.5432,5.5383,5.5438,5.544,5.5432,5.552,5.5531,5.5604,5.5491,5.5493,5.5494,0,5.5065,5.51,5.5177,5.5212,5.5228,5.5264,5.5305,5.5339,5.5371,5.5379,5.5406,5.5407,5.5455,5.5425,5.5493,5.546,5.5483,5.5495,5.5498,5.5505,5.5471,5.5531,5.5627,5.5639,5.551,5.5508,5.5507,0,5.5117,5.5183,5.5238,5.5256,5.5296,5.5322,5.534,5.5371,5.5396,5.5431,5.5448,5.5488,5.5511,5.5543,5.5554,5.5531,5.5623,5.5593,5.5632,5.5632,5.5653,5.5652,5.5756,5.5664,5.5664,5.5664,5.5664,0,5.5195,5.5243,5.5262,5.5297,5.5351,5.536,5.5413,5.543,5.5458,5.5496,5.5493,5.5529,5.5541,5.558,5.5589,5.5646,5.5655,5.5664,5.5667,5.5666,5.5665,5.5682,5.5678,5.5667,5.5666,5.5666,5.5665,0,5.5262,5.5277,5.5337,5.5371,5.5381,5.542,5.5449,5.5483,5.5496,5.5545,5.5557,5.5579,5.5624,5.5638,5.5693,5.5699,5.5766,5.5763,5.5755,5.5756,5.5795,5.5793,5.5916,5.5934,5.5828,5.5829,5.583,0,5.5311,5.5348,5.5387,5.5412,5.5432,5.5473,5.5499,5.551,5.5537,5.5578,5.5607,5.5652,5.5689,5.5762,5.5783,5.5825,5.5825,5.5865,5.5831,5.583,5.5828,5.5827,5.5831,5.5872,5.5873,5.5874,5.5874,0,5.5398,5.5404,5.5442,5.5484,5.5516,5.5548,5.558,5.5601,5.5617,5.5648,5.5695,5.5723,5.578,5.5826,5.5869,5.5888,5.5885,5.5885,5.5897,5.5897,5.5892,5.5898,5.5775,5.5882,5.5882,5.5881,5.5881,5.588,5.5459,5.5493,5.5526,5.5569,5.5595,5.5625,5.5659,5.5677,5.5716,5.5764,5.5767,5.5818,5.5852,5.591,5.5931,5.5972,5.5961,5.5977,5.5982,5.5986,5.5991,5.5884,5.598,5.598,5.5979,5.5979,5.5979,0,5.5548,5.5569,5.5609,5.5654,5.5689,5.5682,5.5718,5.5747,5.5792,5.5823,5.586,5.5915,5.5959,5.5984,5.6029,5.6057,5.6057,5.6069,5.6068,5.6073,5.5997,5.5983,5.6069,5.6069,5.6069,5.6069,5.6069,5.6069,5.5599,5.5656,5.5666,5.5737,5.5758,5.5808,5.5829,5.5858,5.5883,5.5945,5.5982,5.5998,5.6027,5.6074,5.6116,5.6122,5.614,5.6153,5.6159,5.6087,5.6078,5.607,5.6057,5.6156,5.6157,5.6232,5.6233,5.6233]}]]